KD2RHT-13 Weather Reports


Display with metric or nautical units.
time (UTC)temp
F
wind
direction
speed
MPH
gust
MPH
rain 1hr
in
rain 24hr
in
rain mn
in
humidity
%
barometer
mb
20260509192000 61 167 2.0 2.0 0.00 0.00 0.00 78 1008.0
20260509191455 62 176 1.0 1.0 0.00 0.00 0.00 78 1008.0
20260509190952 60 168 0.0 0.0 0.00 0.00 0.00 81 1008.0
20260509190449 60 167 0.0 1.0 0.00 0.00 0.00 81 1008.3
20260509185947 60 152 1.0 2.0 0.00 0.00 0.00 80 1008.3
20260509185444 60 193 2.0 2.0 0.00 0.00 0.00 81 1008.3
20260509184941 62 161 0.0 1.0 0.00 0.00 0.00 80 1008.3
20260509184439 61 187 2.0 2.0 0.00 0.00 0.00 80 1008.7
20260509183935 60 200 1.0 2.0 0.00 0.00 0.00 80 1008.7
20260509183435 60 149 1.0 1.0 0.00 0.00 0.00 82 1008.7
20260509182931 60 193 1.0 3.0 0.00 0.00 0.00 83 1009.0
20260509182428 57 152 1.0 2.0 0.00 0.00 0.00 86 1009.0
20260509181925 57 154 1.0 1.0 0.00 0.00 0.00 86 1009.0
20260509181423 57 148 0.0 0.0 0.00 0.00 0.00 86 1009.0
20260509180920 58 134 1.0 1.0 0.00 0.00 0.00 85 1008.7
20260509180415 58 155 0.0 0.0 0.00 0.00 0.00 85 1008.7
20260509175912 58 154 1.0 1.0 0.00 0.00 0.00 86 1008.7
20260509175409 57 161 0.0 1.0 0.00 0.00 0.00 86 1009.0
20260509174905 57 159 0.0 0.0 0.00 0.00 0.00 86 1008.7
20260509174401 57 96 1.0 3.0 0.00 0.00 0.00 86 1008.7
20260509173858 57 164 0.0 1.0 0.00 0.00 0.00 85 1009.0
20260509173357 57 176 1.0 1.0 0.00 0.00 0.00 85 1009.0
20260509172854 57 165 1.0 1.0 0.00 0.00 0.00 85 1008.7
20260509172351 57 178 0.0 0.0 0.00 0.00 0.00 85 1009.0
20260509171847 57 167 2.0 2.0 0.00 0.00 0.00 84 1009.0
20260509171343 57 186 0.0 0.0 0.00 0.00 0.00 85 1009.0
20260509170839 57 153 0.0 0.0 0.00 0.00 0.00 84 1009.4
20260509170335 57 154 1.0 1.0 0.00 0.00 0.00 83 1009.4
20260509165830 58 159 0.0 0.0 0.00 0.00 0.00 82 1009.4
20260509165324 58 124 3.0 5.0 0.00 0.00 0.00 83 1009.4
20260509164821 58 157 0.0 1.0 0.00 0.00 0.00 82 1009.4
20260509164317 57 141 1.0 2.0 0.00 0.00 0.00 83 1009.4
20260509163814 56 156 1.0 1.0 0.00 0.00 0.00 85 1009.7
20260509163310 55 148 1.0 1.0 0.00 0.00 0.00 84 1009.7
20260509162809 55 181 1.0 2.0 0.00 0.00 0.00 84 1009.7
20260509162306 54 149 0.0 0.0 0.00 0.00 0.00 85 1009.7
20260509161759 54 101 1.0 1.0 0.00 0.00 0.00 85 1009.7
20260509161255 53 146 0.0 0.0 0.00 0.00 0.00 85 1010.0
20260509160751 53 147 2.0 3.0 0.00 0.00 0.00 85 1010.0
20260509160247 53 94 3.0 3.0 0.00 0.00 0.00 85 1010.0
20260509155742 53 154 0.0 0.0 0.00 0.00 0.00 85 1010.0
20260509155239 54 163 0.0 0.0 0.00 0.00 0.00 85 1010.0
20260509154735 54 174 2.0 3.0 0.00 0.00 0.00 84 1010.0
20260509154232 55 172 0.0 0.0 0.00 0.00 0.00 83 1010.0
20260509153730 55 157 0.0 0.0 0.00 0.00 0.00 82 1010.0
20260509153225 56 160 1.0 1.0 0.00 0.00 0.00 81 1010.4
20260509152722 56 117 0.0 1.0 0.00 0.00 0.00 81 1010.4
20260509152219 56 211 0.0 0.0 0.00 0.00 0.00 81 1010.4
20260509151715 56 157 0.0 0.0 0.00 0.00 0.00 82 1010.4
20260509151212 55 61 1.0 3.0 0.00 0.00 0.00 83 1010.4
20260509150710 55 165 0.0 0.0 0.00 0.00 0.00 82 1010.4
20260509150208 55 156 1.0 2.0 0.00 0.00 0.00 82 1010.4
20260509145704 55 162 0.0 0.0 0.00 0.00 0.00 82 1010.4
20260509145159 55 161 0.0 0.0 0.00 0.00 0.00 82 1010.4
20260509144656 55 158 0.0 0.0 0.00 0.00 0.00 81 1010.7
20260509144154 55 173 1.0 1.0 0.00 0.00 0.00 81 1010.4
20260509143651 54 166 1.0 1.0 0.00 0.00 0.00 83 1010.7
20260509143148 55 149 1.0 1.0 0.00 0.00 0.00 82 1010.4
20260509142644 54 153 0.0 0.0 0.00 0.00 0.00 84 1010.7
20260509142141 54 158 0.0 1.0 0.00 0.00 0.00 82 1010.7
20260509141636 53 152 0.0 0.0 0.00 0.00 0.00 83 1010.7
20260509141133 53 166 0.0 0.0 0.00 0.00 0.00 83 1010.7
20260509140630 52 188 0.0 0.0 0.00 0.00 0.00 84 1010.7
20260509140128 52 152 0.0 0.0 0.00 0.00 0.00 83 1010.7
20260509135625 52 183 2.0 2.0 0.00 0.00 0.00 83 1010.7
20260509135123 51 127 0.0 1.0 0.00 0.00 0.00 84 1010.7
20260509134619 51 163 0.0 0.0 0.00 0.00 0.00 84 1010.7
20260509134117 50 160 0.0 0.0 0.00 0.00 0.00 84 1010.7
20260509133614 51 135 0.0 0.0 0.00 0.00 0.00 84 1010.7
20260509133111 50 162 0.0 0.0 0.00 0.00 0.00 84 1011.1
20260509132609 50 82 2.0 2.0 0.00 0.00 0.00 85 1011.4
20260509132107 50 191 1.0 2.0 0.00 0.00 0.00 85 1011.1
20260509131602 49 160 0.0 0.0 0.00 0.00 0.00 85 1011.4
20260509131100 48 153 0.0 1.0 0.00 0.00 0.00 85 1011.1
20260509130555 48 351 0.0 0.0 0.00 0.00 0.00 86 1011.4
20260509130053 48 159 0.0 1.0 0.00 0.00 0.00 86 1011.4
20260509125549 48 148 1.0 2.0 0.00 0.00 0.00 86 1011.1
20260509125046 48 149 0.0 1.0 0.00 0.00 0.00 86 1011.4
20260509124542 47 159 0.0 0.0 0.00 0.00 0.00 87 1011.1
20260509124040 47 164 0.0 0.0 0.00 0.00 0.00 87 1011.1
20260509123537 47 157 0.0 0.0 0.00 0.00 0.00 87 1011.1
20260509123033 47 104 1.0 2.0 0.00 0.00 0.00 86 1011.1
20260509122530 46 168 0.0 0.0 0.00 0.00 0.00 87 1011.1
20260509122027 46 137 0.0 0.0 0.00 0.00 0.00 87 1011.4
20260509121523 46 155 0.0 0.0 0.00 0.00 0.00 87 1011.4
20260509121021 46 157 0.0 0.0 0.00 0.00 0.00 87 1011.1
20260509120519 46 156 0.0 0.0 0.00 0.00 0.00 88 1011.4
20260509120012 45 96 0.0 1.0 0.00 0.00 0.00 88 1011.4
20260509115508 45 157 0.0 0.0 0.00 0.00 0.00 88 1011.1
20260509115006 45 131 0.0 1.0 0.00 0.00 0.00 88 1011.4
20260509114504 44 155 0.0 0.0 0.00 0.00 0.00 88 1011.4
20260509114003 44 165 0.0 0.0 0.00 0.00 0.00 88 1011.4
20260509113500 44 162 0.0 0.0 0.00 0.00 0.00 88 1011.1
20260509112957 44 169 1.0 1.0 0.00 0.00 0.00 88 1011.4
20260509112454 44 164 1.0 1.0 0.00 0.00 0.00 88 1011.4
20260509111950 44 167 1.0 2.0 0.00 0.00 0.00 90 1011.4
20260509111449 43 130 0.0 0.0 0.00 0.00 0.00 90 1011.4
20260509110946 43 226 0.0 1.0 0.00 0.00 0.00 91 1011.7
20260509110442 43 177 0.0 0.0 0.00 0.00 0.00 91 1011.4
20260509105940 43 155 0.0 0.0 0.00 0.00 0.00 91 1011.7
20260509105438 42 162 0.0 0.0 0.00 0.00 0.00 92 1011.4
20260509104935 42 159 0.0 0.0 0.00 0.00 0.00 92 1011.4
20260509104432 42 145 0.0 0.0 0.00 0.00 0.00 93 1011.4
20260509103928 42 158 0.0 0.0 0.00 0.00 0.00 93 1011.4
20260509103426 42 158 0.0 0.0 0.00 0.00 0.00 93 1011.4
20260509102925 41 157 0.0 0.0 0.00 0.00 0.00 93 1011.4
20260509102422 41 192 0.0 0.0 0.00 0.00 0.00 93 1011.4
20260509101917 41 159 0.0 0.0 0.00 0.00 0.00 94 1011.4
20260509101413 41 159 0.0 0.0 0.00 0.00 0.00 93 1011.4
20260509100911 41 158 0.0 0.0 0.00 0.00 0.00 93 1011.4
20260509100409 40 154 0.0 0.0 0.00 0.00 0.00 94 1011.4
20260509095905 40 157 0.0 0.0 0.00 0.00 0.00 94 1011.4
20260509095402 40 163 0.0 0.0 0.00 0.00 0.00 94 1011.4
20260509094859 40 155 0.0 0.0 0.00 0.00 0.00 94 1011.1
20260509094356 40 168 0.0 0.0 0.00 0.00 0.00 95 1011.4
20260509093854 39 153 0.0 0.0 0.00 0.00 0.00 95 1011.1
20260509093350 39 154 0.0 0.0 0.00 0.00 0.00 95 1011.1
20260509092849 39 158 0.0 0.0 0.00 0.00 0.00 95 1011.1
20260509092346 40 155 0.0 0.0 0.00 0.00 0.00 95 1011.4
20260509091845 39 160 0.0 0.0 0.00 0.00 0.00 95 1011.1
20260509091341 39 167 0.0 0.0 0.00 0.00 0.00 96 1011.4
20260509090838 39 156 0.0 0.0 0.00 0.00 0.00 96 1011.4
20260509090336 39 150 0.0 0.0 0.00 0.00 0.00 97 1011.4
20260509085833 39 158 0.0 0.0 0.00 0.00 0.00 97 1011.4
20260509085330 39 151 0.0 0.0 0.00 0.00 0.00 98 1011.7
20260509084826 39 155 0.0 0.0 0.00 0.00 0.00 98 1011.7
20260509084323 39 158 0.0 0.0 0.00 0.00 0.00 98 1011.7
20260509083821 39 154 0.0 0.0 0.00 0.00 0.00 98 1011.7
20260509083318 38 153 0.0 0.0 0.00 0.00 0.00 98 1011.4
20260509082814 38 153 0.0 0.0 0.00 0.00 0.00 98 1011.7
20260509082311 38 152 0.0 0.0 0.00 0.00 0.00 99 1011.7
20260509081809 38 154 0.0 0.0 0.00 0.00 0.00 99 1011.7
20260509081305 38 158 0.0 0.0 0.00 0.00 0.00 98 1011.7
20260509080803 38 155 0.0 0.0 0.00 0.00 0.00 98 1012.1
20260509080301 38 158 0.0 0.0 0.00 0.00 0.00 98 1012.1
20260509075759 38 154 0.0 0.0 0.00 0.00 0.00 98 1012.1
20260509075256 37 157 0.0 0.0 0.00 0.00 0.00 98 1011.7
20260509074753 38 155 0.0 0.0 0.00 0.00 0.00 98 1012.1
20260509074251 37 155 0.0 0.0 0.00 0.00 0.00 97 1012.1
20260509073747 37 155 0.0 0.0 0.00 0.00 0.00 97 1012.1
20260509073243 37 155 0.0 0.0 0.00 0.00 0.00 97 1012.1
20260509072739 38 156 0.0 0.0 0.00 0.00 0.00 97 1012.1
20260509072236 38 152 0.0 0.0 0.00 0.00 0.00 96 1012.1
20260509071733 38 150 0.0 0.0 0.00 0.00 0.00 96 1012.1
20260509071231 38 156 0.0 0.0 0.00 0.00 0.00 96 1012.1
20260509070727 38 160 0.0 0.0 0.00 0.00 0.00 97 1012.1
20260509070224 38 156 0.0 0.0 0.00 0.00 0.00 96 1012.1
20260509065720 37 154 0.0 0.0 0.00 0.00 0.00 96 1012.1
20260509065216 37 157 0.0 0.0 0.00 0.00 0.00 96 1012.4
20260509064713 37 155 0.0 0.0 0.00 0.00 0.00 96 1012.1
20260509064211 37 157 0.0 0.0 0.00 0.00 0.00 96 1012.1
20260509063708 37 158 0.0 0.0 0.00 0.00 0.00 95 1012.1
20260509063203 38 155 0.0 0.0 0.00 0.00 0.00 95 1012.1
20260509062701 38 155 0.0 0.0 0.00 0.00 0.00 96 1012.4
20260509062158 38 154 0.0 0.0 0.00 0.00 0.00 96 1012.1
20260509061655 38 153 0.0 0.0 0.00 0.00 0.00 96 1012.4
20260509061153 38 154 0.0 0.0 0.00 0.00 0.00 97 1012.7
20260509060650 38 152 0.0 0.0 0.00 0.00 0.00 97 1012.4
20260509060146 38 154 0.0 0.0 0.00 0.00 0.00 97 1012.7
20260509055641 38 152 0.0 0.0 0.00 0.00 0.00 97 1012.7
20260509055137 38 158 0.0 0.0 0.00 0.00 0.00 98 1012.7
20260509054634 38 157 0.0 0.0 0.00 0.00 0.00 99 1013.1
20260509054132 38 157 0.0 0.0 0.00 0.00 0.00 99 1012.7
20260509053630 38 157 0.0 0.0 0.00 0.00 0.00 99 1012.7
20260509053127 38 154 0.0 0.0 0.00 0.00 0.00 99 1012.7
20260509052625 37 155 0.0 0.0 0.00 0.00 0.00 99 1013.1
20260509052122 37 152 0.0 0.0 0.00 0.00 0.00 99 1013.1
20260509051620 37 154 0.0 0.0 0.00 0.00 0.00 99 1012.7
20260509051117 37 153 0.0 0.0 0.00 0.00 0.00 99 1013.1
20260509050614 38 155 0.0 0.0 0.00 0.00 0.00 99 1013.1
20260509050110 38 152 0.0 0.0 0.00 0.00 0.00 99 1013.1
20260509045608 38 151 0.0 0.0 0.00 0.00 0.00 99 1013.1
20260509045104 37 152 0.0 0.0 0.00 0.00 0.00 98 1013.1
20260509044602 38 152 0.0 0.0 0.00 0.00 0.00 98 1013.1
20260509044059 38 152 0.0 0.0 0.00 0.00 0.00 98 1013.1
20260509043555 37 152 0.0 0.0 0.00 0.00 0.00 98 1013.1
20260509043051 37 152 0.0 0.0 0.00 0.00 0.00 97 1013.5
20260509042548 37 152 0.0 0.0 0.00 0.00 0.00 97 1013.5
20260509042044 37 152 0.0 0.0 0.00 0.00 0.00 97 1013.5
20260509041540 37 152 0.0 0.0 0.00 0.00 0.00 97 1013.1
20260509041038 38 152 0.0 0.0 0.00 0.00 0.00 96 1013.1
20260509040536 38 152 0.0 0.0 0.00 0.00 0.00 96 1013.1
20260509040033 38 153 0.0 0.0 0.00 0.14 0.14 96 1013.1
20260509035530 38 153 0.0 0.0 0.00 0.14 0.14 95 1013.1
20260509035026 39 153 0.0 0.0 0.00 0.14 0.14 95 1013.5
20260509034525 39 152 0.0 0.0 0.00 0.14 0.14 95 1013.5
20260509034022 39 152 0.0 0.0 0.00 0.14 0.14 95 1013.1
20260509033518 38 155 0.0 0.0 0.00 0.14 0.14 94 1013.1
20260509033015 39 155 0.0 0.0 0.00 0.14 0.14 94 1013.1
20260509032512 39 155 0.0 0.0 0.00 0.14 0.14 94 1013.1
20260509032009 39 157 0.0 0.0 0.00 0.14 0.14 94 1013.1
20260509031507 39 152 0.0 0.0 0.00 0.14 0.14 93 1013.5
20260509031004 39 152 0.0 0.0 0.00 0.14 0.14 93 1013.5
20260509030502 39 152 0.0 0.0 0.00 0.14 0.14 92 1013.5
20260509025959 39 152 0.0 0.0 0.00 0.14 0.14 92 1013.5
20260509025454 39 153 0.0 0.0 0.00 0.14 0.14 91 1013.9
20260509024950 39 153 0.0 0.0 0.00 0.14 0.14 92 1013.1
20260509024446 39 153 0.0 0.0 0.00 0.14 0.14 90 1013.5
20260509023943 39 154 0.0 0.0 0.00 0.14 0.14 88 1013.5
20260509023441 40 154 0.0 0.0 0.00 0.14 0.14 88 1013.5
20260509022937 40 154 0.0 0.0 0.00 0.14 0.14 88 1013.5
20260509022434 40 152 0.0 0.0 0.00 0.14 0.14 87 1013.9
20260509021932 41 152 0.0 0.0 0.00 0.14 0.14 87 1013.5
20260509021428 41 152 0.0 0.0 0.00 0.14 0.14 86 1013.5
20260509020926 41 152 0.0 0.0 0.00 0.14 0.14 86 1013.5
20260509020424 41 152 0.0 0.0 0.00 0.14 0.14 86 1013.5
20260509015921 41 152 0.0 0.0 0.00 0.14 0.14 86 1013.5
20260509015420 41 152 0.0 0.0 0.00 0.14 0.14 84 1013.5
20260509014916 41 155 0.0 0.0 0.00 0.14 0.14 82 1013.5
20260509014413 41 155 0.0 0.0 0.00 0.14 0.14 81 1013.5
20260509013909 41 155 0.0 0.0 0.00 0.14 0.14 80 1013.1
20260509013406 42 155 0.0 0.0 0.00 0.14 0.14 79 1013.5
20260509012901 42 155 0.0 0.0 0.00 0.14 0.14 79 1013.1
20260509012358 43 155 0.0 0.0 0.00 0.14 0.14 78 1013.1
20260509011856 44 155 0.0 0.0 0.00 0.14 0.14 77 1013.1
20260509011353 43 149 0.0 0.0 0.00 0.14 0.14 76 1013.1
20260509010851 43 153 0.0 0.0 0.00 0.14 0.14 75 1013.1
20260509010348 43 151 0.0 0.0 0.00 0.14 0.14 74 1012.7
20260509005845 44 153 0.0 0.0 0.00 0.14 0.14 72 1012.7
20260509005343 45 153 0.0 0.0 0.00 0.14 0.14 70 1012.7
20260509004838 46 153 0.0 0.0 0.00 0.14 0.14 68 1012.7
20260509004334 47 151 0.0 0.0 0.00 0.14 0.14 68 1012.7
20260509003832 47 151 0.0 0.0 0.00 0.14 0.14 68 1012.7
20260509003330 47 140 0.0 0.0 0.00 0.14 0.14 67 1012.7
20260509002827 47 155 0.0 0.0 0.00 0.14 0.14 67 1012.7
20260509002324 48 156 0.0 0.0 0.00 0.14 0.14 66 1012.4
20260509001822 48 155 0.0 0.0 0.00 0.14 0.14 64 1012.4
20260509001317 49 152 0.0 0.0 0.00 0.14 0.14 64 1012.4
20260509000815 50 151 0.0 0.0 0.00 0.14 0.14 62 1012.4
20260509000313 50 152 0.0 0.0 0.00 0.14 0.14 61 1012.1
20260508235809 50 153 0.0 0.0 0.00 0.14 0.14 59 1012.1
20260508235307 51 154 0.0 0.0 0.00 0.14 0.14 57 1012.1
20260508234803 52 155 0.0 0.0 0.00 0.14 0.14 56 1012.1
20260508234259 52 151 0.0 0.0 0.00 0.14 0.14 54 1012.1
20260508233758 53 155 0.0 0.0 0.00 0.14 0.14 52 1012.1
20260508233257 53 155 0.0 1.0 0.00 0.14 0.14 50 1012.1
20260508232753 53 158 0.0 0.0 0.00 0.14 0.14 51 1012.1
20260508232250 54 162 0.0 0.0 0.00 0.14 0.14 49 1012.1
20260508231748 54 173 0.0 0.0 0.00 0.14 0.14 51 1012.1
20260508231244 54 161 0.0 0.0 0.00 0.14 0.14 49 1012.1
20260508230741 54 167 0.0 0.0 0.00 0.14 0.14 47 1012.1
20260508230237 54 91 1.0 1.0 0.00 0.14 0.14 47 1012.1
20260508225735 54 161 0.0 0.0 0.00 0.14 0.14 49 1012.1
20260508225231 54 157 0.0 0.0 0.00 0.14 0.14 47 1012.1
20260508224729 54 171 0.0 0.0 0.00 0.14 0.14 47 1012.1
20260508224227 54 159 0.0 0.0 0.00 0.14 0.14 46 1012.1
20260508223724 55 193 1.0 1.0 0.00 0.14 0.14 48 1012.4
20260508223221 55 160 0.0 0.0 0.00 0.14 0.14 46 1012.1
20260508222719 55 164 0.0 0.0 0.00 0.14 0.14 47 1012.4
20260508222216 55 150 0.0 0.0 0.00 0.14 0.14 46 1012.1
20260508221712 55 167 0.0 1.0 0.00 0.14 0.14 48 1012.1
20260508221208 55 117 2.0 2.0 0.00 0.14 0.14 47 1012.1
20260508220704 55 160 0.0 1.0 0.00 0.14 0.14 47 1012.4
20260508220201 55 141 1.0 1.0 0.00 0.14 0.14 45 1012.1
20260508215658 55 297 3.0 5.0 0.00 0.14 0.14 46 1012.4
20260508215154 56 22 3.0 3.0 0.00 0.14 0.14 49 1012.4
20260508214651 55 187 2.0 2.0 0.00 0.14 0.14 51 1012.4
20260508214149 56 164 0.0 0.0 0.00 0.14 0.14 56 1012.4
20260508213645 56 241 1.0 2.0 0.00 0.14 0.14 56 1012.4
20260508213141 56 191 0.0 0.0 0.00 0.14 0.14 51 1012.4
20260508212638 56 256 1.0 1.0 0.00 0.14 0.14 56 1012.4
20260508212135 55 167 2.0 3.0 0.00 0.14 0.14 55 1012.4
20260508211635 55 172 2.0 2.0 0.00 0.14 0.14 55 1012.4
20260508211131 55 163 1.0 2.0 0.00 0.14 0.14 57 1012.4
20260508210628 55 292 1.0 2.0 0.00 0.14 0.14 56 1012.4
20260508210126 55 157 1.0 1.0 0.00 0.14 0.14 55 1012.4
20260508205623 55 162 0.0 1.0 0.00 0.14 0.14 56 1012.7
20260508205119 55 134 0.0 0.0 0.00 0.14 0.14 55 1012.7
20260508204615 56 132 2.0 2.0 0.00 0.14 0.14 55 1013.1
20260508204112 56 251 2.0 2.0 0.00 0.14 0.14 58 1012.7
20260508203608 55 170 0.0 0.0 0.00 0.14 0.14 62 1012.4
20260508203104 54 144 1.0 1.0 0.00 0.14 0.14 58 1012.7
20260508202600 54 211 1.0 1.0 0.00 0.14 0.14 57 1012.7
20260508202058 56 343 3.0 3.0 0.00 0.14 0.14 56 1012.7
20260508201554 57 200 3.0 3.0 0.00 0.14 0.14 55 1012.4
20260508201051 57 164 0.0 0.0 0.00 0.14 0.14 59 1012.7
20260508200548 59 275 4.0 6.0 0.00 0.14 0.14 54 1012.7
20260508200043 58 180 1.0 2.0 0.00 0.14 0.14 54 1013.1
20260508195541 56 193 2.0 2.0 0.00 0.14 0.14 59 1013.1
20260508195037 53 174 0.0 0.0 0.00 0.14 0.14 60 1013.1
20260508194534 54 212 1.0 2.0 0.00 0.14 0.14 61 1013.1
20260508194031 54 201 3.0 3.0 0.00 0.14 0.14 61 1013.1
20260508193527 54 190 3.0 3.0 0.00 0.14 0.14 61 1013.5
20260508193024 54 187 1.0 2.0 0.00 0.14 0.14 60 1013.1
20260508192521 56 183 3.0 3.0 0.00 0.14 0.14 61 1013.1